FW9241 Weather Reports


time (UTC)temp
F
wind
direction
speed
knots
gust
knots
rain 1hr
in
rain 24hr
in
rain mn
in
humidity
%
barometer
mb
20260506211602 56 250 0.0 1.7 0.10 0.30 0.30 94 1005.4
20260506210058 56 251 0.0 1.7 0.05 0.25 0.25 94 1005.4
20260506204712 56 0 0.0 2.6 0.05 0.24 0.24 94 1005.5
20260506203055 56 233 0.0 1.7 0.04 0.22 0.22 94 1005.6
20260506201556 56 0 0.0 1.7 0.05 0.20 0.20 94 1005.6
20260506200054 56 255 0.9 2.6 0.06 0.20 0.20 93 1005.8
20260506194559 56 0 0.9 2.6 0.07 0.19 0.19 93 1005.9
20260506193135 56 228 0.9 3.5 0.08 0.18 0.18 93 1006.1
20260506191556 56 248 0.9 3.5 0.06 0.15 0.15 93 1006.1
20260506190101 57 231 1.7 2.6 0.07 0.14 0.14 92 1006.2
20260506184556 57 240 0.9 2.6 0.05 0.12 0.12 92 1006.5
20260506183103 57 226 0.9 1.7 0.04 0.10 0.10 92 1006.7
20260506181623 57 158 1.7 4.3 0.04 0.09 0.09 91 1006.7
20260506180059 58 0 0.9 3.5 0.05 0.07 0.07 91 1006.9
20260506174556 58 244 0.0 1.7 0.07 0.07 0.07 91 1006.7
20260506173101 58 246 0.9 2.6 0.06 0.06 0.06 91 1006.9
20260506171553 59 233 0.0 1.7 0.05 0.05 0.05 89 1007.1
20260506170056 59 233 0.9 2.6 0.02 0.02 0.02 87 1007.9
20260506164604 61 0 0.9 1.7 0.00 0.00 0.00 84 1008.1
20260506163100 62 251 0.9 1.7 0.00 0.00 0.00 81 1007.8
20260506161554 62 249 0.9 2.6 0.00 0.00 0.00 80 1007.9
20260506154603 62 207 0.9 3.5 0.00 0.00 0.00 79 1008.2
20260506153115 61 221 0.9 2.6 0.00 0.00 0.00 80 1008.4
20260506151556 61 253 0.9 2.6 0.00 0.00 0.00 80 1008.5
20260506144559 60 251 0.0 2.6 0.00 0.00 0.00 82 1008.8
20260506143057 60 243 0.9 2.6 0.00 0.00 0.00 82 1008.9
20260506141556 60 242 0.9 3.5 0.00 0.00 0.00 82 1008.9
20260506140057 60 236 0.9 3.5 0.00 0.00 0.00 82 1008.8
20260506134555 60 248 0.9 2.6 0.00 0.00 0.00 82 1008.7
20260506133053 60 0 0.9 4.3 0.00 0.00 0.00 83 1008.5
20260506131600 59 250 0.9 2.6 0.00 0.00 0.00 83 1008.5
20260506130056 59 248 0.0 1.7 0.00 0.00 0.00 84 1008.8
20260506124555 59 0 0.0 1.7 0.00 0.00 0.00 84 1008.7
20260506123057 59 0 0.0 1.7 0.00 0.00 0.00 84 1009.0
20260506121557 58 242 0.0 2.6 0.00 0.00 0.00 86 1009.0
20260506120057 57 238 0.0 1.7 0.00 0.00 0.00 87 1009.0
20260506114602 56 239 0.0 1.7 0.00 0.00 0.00 88 1009.1
20260506113056 55 0 0.0 2.6 0.00 0.00 0.00 88 1009.1
20260506111600 55 244 0.0 2.6 0.00 0.00 0.00 89 1009.1
20260506110110 55 242 0.0 1.7 0.00 0.00 0.00 89 1009.0
20260506104601 54 238 0.0 1.7 0.00 0.00 0.00 89 1009.5
20260506103057 54 0 0.0 1.7 0.00 0.00 0.00 89 1009.2
20260506101556 54 0 0.0 1.7 0.00 0.00 0.00 89 1009.2
20260506100056 54 0 0.0 1.7 0.00 0.00 0.00 89 1008.9
20260506094555 53 236 0.0 1.7 0.00 0.00 0.00 89 1008.9
20260506093055 53 165 0.0 0.9 0.00 0.00 0.00 88 1008.8
20260506091559 54 247 0.0 0.9 0.00 0.00 0.00 87 1008.9
20260506090101 54 0 0.0 0.9 0.00 0.00 0.00 87 1009.1
20260506084602 54 248 0.0 0.0 0.00 0.00 0.00 85 1009.1
20260506083057 55 0 0.0 0.9 0.00 0.00 0.00 85 1009.1
20260506081600 55 0 0.0 1.7 0.00 0.00 0.00 84 1009.2
20260506080105 55 0 0.0 1.7 0.00 0.00 0.00 83 1009.0
20260506073058 56 237 0.0 1.7 0.00 0.00 0.00 81 1009.1
20260506071603 56 248 0.0 1.7 0.00 0.00 0.00 82 1009.1
20260506061555 57 0 0.0 0.0 0.00 0.00 0.00 79 1009.2
20260506050105 60 236 0.9 1.7 0.00 0.00 0.00 74 1009.3
20260506044555 60 243 0.0 1.7 0.00 0.00 0.00 73 1009.4
20260506043100 60 0 0.0 0.9 0.00 0.00 0.00 73 1009.6
20260506041558 61 252 0.9 2.6 0.00 0.00 0.00 72 1009.3
20260506040054 60 238 0.9 3.5 0.00 0.00 0.00 72 1009.3
20260506034615 60 201 0.9 2.6 0.00 0.00 0.00 72 1009.4
20260506033103 61 236 0.9 1.7 0.00 0.00 0.00 72 1009.5
20260506031608 61 0 0.0 0.9 0.00 0.00 0.00 71 1009.7
20260506030058 61 0 0.0 1.7 0.00 0.00 0.00 70 1009.6
20260506024613 61 221 0.0 1.7 0.00 0.00 0.00 70 1009.7
20260506023055 62 248 0.0 2.6 0.00 0.00 0.00 69 1009.4
20260506021559 62 242 0.9 1.7 0.00 0.00 0.00 69 1009.4
20260506020100 63 257 0.0 1.7 0.00 0.00 0.00 68 1009.3
20260506014557 63 0 0.0 2.6 0.00 0.00 0.00 67 1009.3
20260506013108 63 257 0.9 1.7 0.00 0.00 0.00 67 1009.3
20260506011607 63 241 0.9 2.6 0.00 0.00 0.00 66 1009.2
20260506010058 64 240 0.9 2.6 0.00 0.00 0.00 65 1009.1
20260506004558 64 246 0.0 2.6 0.00 0.00 0.00 65 1008.9
20260506003058 65 239 0.9 3.5 0.00 0.00 0.00 63 1008.7
20260506001557 66 240 0.9 2.6 0.00 0.00 0.00 62 1008.4
20260506000053 67 0 0.9 3.5 0.00 0.00 0.00 61 1008.1
20260505234559 67 240 0.9 5.2 0.00 0.00 0.00 59 1007.8
20260505233056 68 242 0.9 3.5 0.00 0.00 0.00 58 1007.7
20260505231555 69 230 1.7 5.2 0.00 0.00 0.00 56 1007.6
20260505230105 70 191 1.7 6.1 0.00 0.00 0.00 54 1007.2
20260505224556 70 172 0.9 5.2 0.00 0.00 0.00 53 1007.1
20260505223107 71 258 1.7 4.3 0.00 0.00 0.00 52 1007.0
20260505221553 72 259 2.6 5.2 0.00 0.00 0.00 51 1006.9
20260505220054 72 260 2.6 6.1 0.00 0.00 0.00 50 1006.9
20260505214555 73 203 2.6 7.0 0.00 0.00 0.00 49 1006.9
20260505213100 73 224 2.6 7.0 0.00 0.00 0.00 50 1006.6